Change the Weather History Date:

Sunday, September 2, 2012

  Actual Average Record
Temperature  
Mean Temperature 82 °F -  
Max Temperature 85 °F 85 °F 91 °F (1997)
Min Temperature 78 °F 75 °F 75 °F (1999)
Cooling Degree Days 16    
Growing Degree Days 32 (Base 50)    
Moisture  
Dew Point 71 °F    
Average Humidity 69    
Maximum Humidity 76    
Minimum Humidity 62    
Precipitation  
Precipitation 0.00 in - - ()
Sea Level Pressure  
Sea Level Pressure 30.06 in    
Wind  
Wind Speed 8 mph (ENE)    
Max Wind Speed 10 mph    
Max Gust Speed -    
Visibility 10 miles    
Events      
Averages and records for this station are not official NWS values.
T = Trace of Precipitation, MM = Missing Value Source: NWS Daily Summary

Daily Weather History Graph

Daily Weather History Graph

Search for Another Location

Airport or City:

Trip Planner

Search our weather history database for the weather conditions in past years. The results will help you decide how hot, cold, wet, or windy it might be!

Date:

Astronomy

Sep. 02, 2012 Rise Set
Actual Time 7:01 AM EDT 7:41 PM EDT
Civil Twilight 6:37 AM EDT 8:05 PM EDT
Nautical Twilight 6:09 AM EDT 8:33 PM EDT
Astronomical Twilight 5:41 AM EDT 9:02 PM EDT
Moon 8:47 PM EDT (9/2) 8:51 AM EDT (9/2)
Length of Visible Light 13h 27m
Length of Day
12h 40m
Waning Gibbous, 95% of the Moon is Illuminated
Sep 2
Waning Gibbous
Sep 8
Last Quarter
Sep 15
New
Sep 22
First Quarter
Sep 29
Full

Hourly Weather History & Observations

Time (EDT) Temp. Heat Index Dew Point Humidity Pressure Visibility Wind Dir Wind Speed Gust Speed Precip Events Conditions
12:55 AM 79.9 °F - 71.6 °F 76% 30.10 in 10.0 mi East 8.1 mph - N/A   Clear
1:55 AM 79.7 °F - 70.7 °F 74% 30.09 in 10.0 mi East 9.2 mph - N/A   Clear
2:55 AM 79.5 °F - 70.3 °F 73% 30.07 in 10.0 mi East 8.1 mph - N/A   Clear
3:55 AM 79.3 °F - 69.4 °F 72% 30.06 in 10.0 mi ENE 9.2 mph - N/A   Clear
4:55 AM 79.0 °F - 69.1 °F 72% 30.06 in 10.0 mi ENE 8.1 mph - N/A   Clear
5:55 AM 78.8 °F - 68.9 °F 72% 30.06 in 10.0 mi ENE 5.8 mph - N/A   Clear
6:55 AM 78.6 °F - 68.4 °F 71% 30.07 in 10.0 mi ENE 8.1 mph - N/A   Clear
7:55 AM 79.9 °F - 68.4 °F 68% 30.08 in 10.0 mi East 10.4 mph - N/A   Clear
8:55 AM 82.0 °F 85.5 °F 69.3 °F 65% 30.08 in 10.0 mi East 8.1 mph - N/A   Clear
9:55 AM 83.7 °F 87.7 °F 69.8 °F 63% 30.09 in 10.0 mi ENE 9.2 mph - N/A   Clear
10:55 AM 84.4 °F 88.7 °F 70.0 °F 62% 30.11 in 10.0 mi ENE 6.9 mph - N/A   Clear
11:55 AM 84.9 °F 89.7 °F 70.5 °F 62% 30.10 in 10.0 mi ENE 6.9 mph - N/A   Clear
12:55 PM 84.9 °F 90.4 °F 71.6 °F 64% 30.10 in 10.0 mi ENE 6.9 mph - N/A   Clear
1:55 PM 85.1 °F 91.5 °F 72.5 °F 66% 30.08 in 10.0 mi ENE 6.9 mph - N/A   Clear
2:55 PM 85.3 °F 91.5 °F 72.5 °F 65% 30.06 in 10.0 mi ENE 6.9 mph - N/A   Clear
3:55 PM 84.9 °F 90.7 °F 72.1 °F 65% 30.04 in 10.0 mi East 5.8 mph - N/A   Clear
4:55 PM 84.4 °F 89.7 °F 71.4 °F 65% 30.02 in 10.0 mi East 6.9 mph - N/A   Clear
5:55 PM 83.7 °F 89.4 °F 72.3 °F 69% 30.01 in 10.0 mi ENE 5.8 mph - N/A   Clear
6:55 PM 82.2 °F 87.1 °F 72.0 °F 71% 30.02 in 10.0 mi ENE 6.9 mph - N/A   Clear
7:55 PM 81.0 °F 85.2 °F 72.1 °F 74% 30.02 in 10.0 mi ENE 6.9 mph - N/A   Clear
8:55 PM 80.8 °F 84.7 °F 71.6 °F 73% 30.03 in 10.0 mi East 8.1 mph - N/A   Clear
9:55 PM 80.4 °F 84.2 °F 71.6 °F 74% 30.04 in 10.0 mi East 6.9 mph - N/A   Clear
10:55 PM 80.4 °F 84.4 °F 72.0 °F 75% 30.05 in 10.0 mi East 8.1 mph - N/A   Clear
11:55 PM 80.1 °F 83.7 °F 71.6 °F 75% 30.06 in 10.0 mi East 5.8 mph - N/A   Clear